SP5IZJ-2 Weather Reports


Display with metric or nautical units.
time (UTC)temp
F
wind
direction
speed
MPH
gust
MPH
rain 1hr
in
rain 24hr
in
rain mn
in
humidity
%
barometer
mb
20260509100334 60 158 1.0 5.0 0.00 0.00 0.00 57 1012.9
20260509095649 60 180 3.0 12.0 0.00 0.00 0.00 57 1013.1
20260509094934 57 158 3.0 8.0 0.00 0.00 0.00 60 1013.1
20260509094319 56 158 2.0 9.0 0.00 0.00 0.00 60 1013.2
20260509093534 58 359 0.0 0.0 0.00 0.00 0.00 60 1013.1
20260509091436 54 158 1.0 8.0 0.00 0.00 0.00 65 1013.0
20260509090736 54 158 1.0 4.0 0.00 0.00 0.00 66 1013.1
20260509085342 54 180 2.0 7.0 0.00 0.00 0.00 66 1013.2
20260509084700 53 135 3.0 9.0 0.00 0.00 0.00 67 1013.0
20260509084021 53 158 2.0 7.0 0.00 0.00 0.00 69 1013.1
20260509082622 52 158 4.0 11.0 0.00 0.00 0.00 69 1013.1
20260509081921 52 158 5.0 11.0 0.00 0.00 0.00 70 1013.0
20260509081221 52 158 7.0 13.0 0.00 0.00 0.00 70 1013.0
20260509080521 53 135 7.0 13.0 0.00 0.00 0.00 69 1013.0
20260509075122 53 158 4.0 7.0 0.00 0.00 0.00 74 1012.6
20260509074419 52 135 3.0 8.0 0.00 0.00 0.00 75 1012.8
20260509072942 51 135 4.0 8.0 0.00 0.00 0.00 79 1012.8
20260509070846 51 158 4.0 9.0 0.00 0.00 0.00 78 1012.6
20260509065438 51 135 4.0 9.0 0.00 0.00 0.00 79 1012.5
20260509064738 51 158 4.0 13.0 0.00 0.00 0.00 79 1012.6
20260509064052 51 135 4.0 13.0 0.00 0.00 0.00 79 1012.6
20260509063340 52 158 1.0 6.0 0.00 0.00 0.00 79 1012.4
20260509062639 52 135 2.0 7.0 0.00 0.00 0.00 81 1012.5
20260509061239 51 135 4.0 8.0 0.00 0.00 0.00 83 1012.3
20260509060557 51 135 2.0 8.0 0.00 0.00 0.00 85 1012.4
20260509055859 51 135 2.0 6.0 0.00 0.00 0.00 86 1012.2
20260509055211 50 158 4.0 7.0 0.00 0.00 0.00 87 1012.4
20260509054440 49 135 4.0 7.0 0.00 0.00 0.00 89 1012.4
20260509053040 49 158 2.0 6.0 0.00 0.00 0.00 91 1012.3
20260509051641 47 135 3.0 6.0 0.00 0.00 0.00 91 1012.4
20260509050941 47 135 3.0 9.0 0.00 0.00 0.00 91 1012.4
20260509050259 47 135 0.0 3.0 0.00 0.00 0.00 91 1012.3
20260509045541 47 135 0.0 3.0 0.00 0.00 0.00 91 1012.2
20260509044142 46 113 0.0 0.0 0.00 0.00 0.00 91 1012.4
20260509042742 46 135 0.0 0.0 0.00 0.00 0.00 90 1012.2
20260509042053 46 135 0.0 0.0 0.00 0.00 0.00 90 1012.2
20260509041342 46 113 0.0 0.0 0.00 0.00 0.00 90 1012.1
20260509041006 46 359 0.0 0.0 0.00 0.00 0.00 90 1012.2
20260509040642 46 113 0.0 0.0 0.00 0.00 0.00 90 1012.1
20260509035954 46 359 0.0 0.0 0.00 0.00 0.00 90 1012.2
20260509035243 46 90 0.0 0.0 0.00 0.00 0.00 90 1012.2
20260509034628 46 90 0.0 0.0 0.00 0.00 0.00 90 1012.2
20260509033847 46 90 0.0 0.0 0.00 0.00 0.00 90 1012.2
20260509032444 46 113 0.0 0.0 0.00 0.00 0.00 90 1012.1
20260509031746 46 113 0.0 0.0 0.00 0.00 0.00 90 1012.0
20260509031129 46 113 0.0 0.0 0.00 0.00 0.00 90 1012.1
20260509030344 45 90 0.0 0.0 0.00 0.00 0.00 90 1012.1
20260509024951 45 113 0.0 0.0 0.00 0.00 0.00 89 1012.1
20260509023547 46 90 0.0 1.0 0.00 0.00 0.00 89 1012.2
20260509022847 46 113 0.0 0.0 0.00 0.00 0.00 89 1012.1
20260509022154 46 113 0.0 0.0 0.00 0.00 0.00 89 1012.1
20260509021530 46 113 0.0 0.0 0.00 0.00 0.00 89 1012.1
20260509020819 46 113 0.0 0.0 0.00 0.00 0.00 89 1012.1
20260509020132 46 113 0.0 0.0 0.00 0.00 0.00 89 1012.1
20260509015431 46 113 0.0 0.0 0.00 0.00 0.00 89 1012.1
20260509014731 46 113 0.0 0.0 0.00 0.00 0.00 89 1012.0
20260509014004 46 113 0.0 0.0 0.00 0.00 0.00 89 1012.0
20260509013331 46 113 0.0 0.0 0.00 0.00 0.00 89 1012.0
20260509012600 46 113 0.0 0.0 0.00 0.00 0.00 89 1012.0
20260509011932 46 113 0.0 0.0 0.00 0.00 0.00 89 1012.1
20260509011232 46 135 0.0 0.0 0.00 0.00 0.00 89 1012.1
20260509010505 46 135 0.0 0.0 0.00 0.00 0.00 89 1012.1
20260509005752 46 135 0.0 0.0 0.00 0.00 0.00 89 1012.1
20260509005132 46 135 0.0 0.0 0.00 0.00 0.00 89 1012.2
20260509003733 46 135 0.0 0.0 0.00 0.00 0.00 89 1012.2
20260509003032 46 135 0.0 0.0 0.00 0.00 0.00 89 1012.2
20260509002333 46 135 0.0 0.0 0.00 0.00 0.00 89 1012.1
20260509001612 46 135 0.0 0.0 0.00 0.00 0.00 89 1012.3
20260509000853 46 135 0.0 0.0 0.00 0.00 0.00 89 1012.2
20260509000234 46 135 0.0 0.0 0.00 0.00 0.00 89 1012.3
20260508235524 46 135 0.0 0.0 0.00 0.00 0.00 89 1012.4
20260508234749 46 158 0.0 0.0 0.00 0.00 0.00 89 1012.3
20260508233434 46 359 0.0 0.0 0.00 0.00 0.00 89 1012.3
20260508232649 46 158 0.0 0.0 0.00 0.00 0.00 89 1012.2
20260508232035 46 158 0.0 1.0 0.00 0.00 0.00 89 1012.1
20260508231335 46 135 0.0 0.0 0.00 0.00 0.00 89 1012.1
20260508230635 46 135 0.0 0.0 0.00 0.00 0.00 89 1012.1
20260508225935 46 135 0.0 0.0 0.00 0.00 0.00 89 1012.1
20260508225235 46 135 0.0 0.0 0.00 0.00 0.00 89 1012.2
20260508223136 47 158 0.0 0.0 0.00 0.00 0.00 89 1012.0
20260508222436 47 158 0.0 0.0 0.00 0.00 0.00 89 1011.9
20260508221736 47 158 0.0 0.0 0.00 0.00 0.00 89 1012.3
20260508221024 47 158 0.0 0.0 0.00 0.00 0.00 89 1012.3
20260508220336 47 158 0.0 0.0 0.00 0.00 0.00 89 1012.2
20260508215637 47 158 0.0 0.0 0.00 0.00 0.00 89 1012.1
20260508214944 47 158 0.0 0.0 0.00 0.00 0.00 89 1012.1
20260508214937 47 158 0.0 0.0 0.00 0.00 0.00 89 1012.1
20260508213537 47 158 0.0 0.0 0.00 0.00 0.00 89 1012.4
20260508212138 47 135 0.0 0.0 0.00 0.00 0.00 89 1012.4
20260508211438 47 135 0.0 0.0 0.00 0.00 0.00 89 1012.4
20260508210738 47 135 0.0 0.0 0.00 0.00 0.00 89 1012.4
20260508210038 47 135 0.0 0.0 0.00 0.00 0.00 89 1012.4
20260508205338 47 135 0.0 0.0 0.00 0.00 0.00 89 1012.4
20260508203939 47 113 0.0 0.0 0.00 0.00 0.00 89 1012.4
20260508201139 47 135 0.0 0.0 0.00 0.00 0.00 88 1012.2
20260508200439 47 135 0.0 0.0 0.00 0.00 0.00 88 1012.1
20260508195741 47 135 0.0 0.0 0.00 0.00 0.00 88 1012.0
20260508194340 47 135 0.0 0.0 0.00 0.00 0.00 88 1012.0
20260508193641 47 158 0.0 0.0 0.00 0.00 0.00 88 1012.0
20260508192940 47 158 0.0 0.0 0.00 0.00 0.00 88 1012.0
20260508192240 47 158 0.0 0.0 0.00 0.00 0.00 88 1011.9
20260508191541 47 158 0.0 0.0 0.00 0.00 0.00 87 1012.0
20260508190841 47 359 0.0 0.0 0.00 0.00 0.00 87 1012.1
20260508190141 47 158 0.0 1.0 0.00 0.00 0.00 87 1012.0
20260508185443 47 135 0.0 0.0 0.00 0.00 0.00 87 1012.1
20260508184741 47 135 0.0 0.0 0.00 0.00 0.00 86 1011.9
20260508184042 47 158 0.0 0.0 0.00 0.00 0.00 86 1012.0
20260508182642 48 158 0.0 0.0 0.00 0.00 0.00 86 1011.8
20260508181952 48 158 0.0 0.0 0.00 0.00 0.00 85 1011.8
20260508181942 48 158 0.0 0.0 0.00 0.00 0.00 85 1011.8
20260508180457 48 158 0.0 1.0 0.00 0.00 0.00 84 1011.6
20260508173743 49 158 0.0 1.0 0.00 0.00 0.00 83 1011.3
20260508170944 50 135 0.0 0.0 0.00 0.00 0.00 80 1011.1
20260508170245 50 135 0.0 3.0 0.00 0.00 0.00 80 1010.9
20260508165544 50 135 1.0 4.0 0.00 0.00 0.00 78 1010.9
20260508162700 53 113 0.0 3.0 0.00 0.00 0.00 75 1011.0
20260508162007 53 90 0.0 1.0 0.00 0.00 0.00 76 1010.9
20260508162000 53 90 0.0 1.0 0.00 0.00 0.00 76 1010.9
20260508160600 53 90 0.0 1.0 0.00 0.00 0.00 75 1010.9
20260508155901 53 135 0.0 3.0 0.00 0.00 0.00 75 1010.9
20260508155201 53 359 0.0 0.0 0.00 0.00 0.00 75 1010.8
20260508154503 53 135 0.0 5.0 0.00 0.00 0.00 75 1010.8
20260508153801 53 135 1.0 6.0 0.00 0.00 0.00 75 1010.8
20260508153101 53 135 0.0 4.0 0.00 0.00 0.00 74 1010.7
20260508151702 53 135 0.0 4.0 0.00 0.00 0.00 74 1010.8
20260508151002 54 90 0.0 3.0 0.00 0.00 0.00 74 1010.7
20260508145602 53 135 1.0 4.0 0.00 0.00 0.00 74 1010.7
20260508144905 53 359 0.0 0.0 0.00 0.00 0.00 74 1010.8
20260508144203 53 113 1.0 4.0 0.00 0.00 0.00 74 1010.8
20260508142803 53 113 0.0 3.0 0.00 0.00 0.00 76 1010.8
20260508142103 53 68 0.0 3.0 0.00 0.00 0.00 75 1010.8
20260508141405 53 135 0.0 0.0 0.00 0.00 0.00 74 1010.8
20260508140703 54 135 0.0 0.0 0.00 0.00 0.00 74 1010.8
20260508135306 54 158 0.0 4.0 0.00 0.00 0.00 75 1010.9
20260508134604 53 135 0.0 4.0 0.00 0.00 0.00 76 1010.8
20260508133906 53 135 1.0 3.0 0.00 0.00 0.00 76 1010.8
20260508133204 53 158 0.0 3.0 0.00 0.00 0.00 76 1010.9
20260508132504 53 135 1.0 5.0 0.00 0.00 0.00 75 1010.8
20260508130405 54 135 1.0 5.0 0.00 0.00 0.00 74 1010.7
20260508125705 55 68 2.0 8.0 0.00 0.00 0.00 72 1010.6
20260508123607 55 68 2.0 5.0 0.00 0.00 0.00 72 1010.8
20260508122907 55 68 0.0 3.0 0.00 0.00 0.00 74 1010.8
20260508121514 55 68 1.0 4.0 0.00 0.00 0.00 73 1010.8
20260508120112 55 45 0.0 2.0 0.00 0.00 0.00 72 1010.7
20260508114007 56 68 0.0 3.0 0.00 0.00 0.00 73 1010.6
20260508113309 56 135 0.0 1.0 0.00 0.00 0.00 75 1010.7
20260508112607 55 68 0.0 2.0 0.00 0.00 0.00 77 1010.6
20260508111910 54 68 0.0 0.0 0.00 0.00 0.00 78 1010.8
20260508111210 53 90 0.0 0.0 0.00 0.00 0.00 79 1010.7
20260508110508 53 90 0.0 2.0 0.00 0.00 0.00 79 1010.7
20260508105809 52 68 0.0 3.0 0.00 0.00 0.00 79 1010.5
20260508105109 53 45 0.0 6.0 0.00 0.00 0.00 78 1010.5
20260508103724 53 135 0.0 4.0 0.00 0.00 0.00 77 1010.4
20260508102310 54 90 0.0 4.0 0.00 0.00 0.00 75 1010.5
20260508101610 55 68 1.0 4.0 0.00 0.00 0.00 73 1010.5